Cloud_Cover
0 0 0 18 16 42 52 61 32 52 100 100 88 100 76 71 52 48 84 10 68 52 13 1 5 0 2 18 0 1 35 57 7 0 0 2 11 5 0 0 0 29 59
0 12 20 24 11 54 100 100 57 41 78 86 100 100 100 19 73 16 22 2 0 0 0 0 4 61 99 100 4 4 0 0 22 5 40 59 0 1 0 0 0 6 33
2 24 22 33 72 100 100 100 46 98 100 99 99 59 10 4 8 0 10 2 0 0 1 1 97 96 18 0 0 1 8 5 13 6 7 4 6 1 6 0 0 22 16
12 9 59 66 100 100 100 100 100 100 74 14 1 2 64 4 2 13 3 0 0 0 0 0 0 44 2 0 0 1 57 72 88 96 34 5 11 0 44 4 2 11 5
17 78 99 100 100 100 100 100 60 8 1 0 3 19 6 21 0 0 0 0 0 0 0 0 17 31 87 11 86 19 34 33 50 60 74 80 48 1 4 5 43 58 47
75 99 100 100 99 91 30 5 5 4 0 0 3 12 0 2 2 5 0 1 1 0 21 55 100 100 85 30 27 20 66 100 100 40 43 61 38 24 61 100 100 100 100
99 100 79 31 55 8 5 5 5 0 6 5 19 28 6 4 5 0 0 0 14 99 94 100 99 100 100 100 34 7 68 61 75 99 100 100 100 100 100 100 100 100 100
60 42 19 5 37 93 71 44 2 5 5 5 28 0 14 3 30 0 0 0 94 14 68 69 100 77 100 95 87 71 100 100 99 100 100 100 100 100 100 100 100 100 100
72 99 65 50 98 31 96 100 43 11 59 5 1 7 63 99 82 0 0 0 3 5 41 100 74 100 34 80 76 100 95 47 100 100 100 100 100 100 100 100 100 100 100
96 86 23 77 8 100 100 99 100 100 79 0 0 6 72 36 51 0 1 1 8 11 35 93 100 26 5 12 59 99 100 100 100 100 100 100 100 100 99 100 100 100 100
100 68 20 9 94 100 100 71 100 84 5 0 3 11 95 82 0 0 0 3 20 75 100 80 57 5 5 8 17 77 99 100 100 100 100 100 100 100 100 100 100 100 100
42 5 21 100 87 36 4 5 100 100 4 6 17 99 100 53 0 7 0 2 2 83 100 72 7 5 5 5 18 96 100 100 100 100 100 100 100 100 100 100 100 100 100
5 5 78 64 62 5 0 21 95 5 27 23 100 100 100 0 0 0 0 5 74 33 52 50 35 92 16 98 100 100 100 100 100 100 100 100 100 100 100 100 100 100 100
2 99 88 0 1 5 33 34 1 5 10 100 100 100 11 0 0 0 0 11 13 4 0 87 14 26 100 100 100 100 100 100 100 100 100 100 100 100 100 100 100 100 100
40 13 0 0 2 16 47 38 29 93 100 64 0 0 0 0 6 16 28 2 2 4 12 2 5 5 76 95 78 70 100 100 100 100 100 100 100 100 100 100 100 100 100
10 0 0 1 55 34 38 100 100 30 0 0 3 0 4 11 4 3 6 2 5 4 0 1 0 39 4 64 99 45 100 98 100 100 100 100 100 100 100 100 100 100 100
0 5 4 5 92 84 12 1 5 2 0 0 4 3 5 82 4 22 67 5 1 30 0 0 0 0 4 96 100 46 94 100 100 100 100 100 100 100 100 100 100 100 100
5 5 32 10 5 6 90 100 94 6 73 84 4 5 9 5 4 95 51 16 2 3 5 0 0 0 21 84 100 43 99 100 100 100 100 100 100 100 100 100 100 100 100
100 100 99 100 99 100 100 16 5 5 5 5 5 32 22 20 25 100 100 44 9 5 5 0 0 0 24 100 100 100 97 100 100 91 100 100 100 100 100 100 100 100 100
100 100 84 100 100 87 5 5 19 84 71 74 91 13 14 6 100 100 33 94 40 5 1 0 0 0 5 33 89 100 100 100 100 100 98 100 51 100 100 100 100 100 100
100 100 100 100 100 100 46 6 47 100 100 100 91 91 100 100 100 98 99 95 90 9 5 0 0 0 0 1 5 96 100 98 100 100 100 98 10 29 100 100 100 100 100
100 100 100 100 24 56 34 99 100 100 100 98 100 100 100 100 100 41 8 97 67 9 5 2 0 0 0 1 4 5 79 100 100 91 70 48 8 5 98 72 100 100 100
100 100 100 100 100 100 100 100 100 100 100 100 99 100 100 100 83 31 82 20 12 5 0 0 0 1 4 5 4 5 2 18 29 5 5 11 3 5 5 5 58 100 100
100 100 100 100 100 100 100 100 100 100 100 100 100 100 100 82 100 95 14 95 100 7 0 0 3 5 5 5 4 3 0 0 0 0 0 0 3 5 0 5 5 65 99
100 100 100 100 100 100 100 100 100 100 100 100 100 100 97 18 35 25 93 55 14 8 0 0 2 4 4 4 2 0 0 0 18 43 0 2 5 5 1 5 5 5 56
100 100 100 100 100 100 100 100 100 97 100 100 100 93 23 29 92 88 22 32 5 6 0 0 5 5 0 3 1 0 0 0 1 0 5 5 3 5 5 5 5 5 5